Flag for Greece Weather past 2 weeks in Kalamaria, Greece

Now
73 °F

Broken clouds.


Feels Like: 76 °F
Forecast: 57 / 83 °F
Wind: 3 mph from North

Location: Thessaloniki Airport

Current Time: May 22, 2015 at 2:13:36 PM

Latest Report: May 22, 2015 at 1:20 PM


Visibility: N/A

Pressure: 29.98 "Hg

Humidity: 65%

Dew point: 61 °F

Location of KalamariaLocation

Historic Weather in Kalamaria — Graph

°F

Kalamaria temperature yesterday

Maximum temperature yesterday: 82 °F (at 2:50 PM)
Minimum temperature yesterday: 59 °F (at 6:20 AM)
Average temperature yesterday: 72 °F

Past Weeks' High & Low Weather Summary

 TemperatureHumidityPressure
High84 °F (May 7, 3:20 PM)94% (May 10, 1:20 AM)30.21 "Hg (May 10, 1:20 AM)
Low50 °F (May 13, 6:20 AM)22% (May 8, 3:20 PM)29.74 "Hg (May 19, 4:50 PM)
Average69 °F63%29.96 "Hg
* Reported May 7 12:20 PM — May 22 12:50 PM, Kalamaria, Weather by CustomWeather, © 2015

Note: Actual official high and low records may vary slightly from our data, if they occured in-between our weather recording intervals... More about our weather records

Advertising

Kalamaria weather history for previous 24 hours

 ConditionsComfort  
Time TempWeatherWind HumidityBarometerVisibility
12:50 PM
Fri, May 22
73 °FBroken clouds.3 mph69%29.98 "HgN/A
11:50 AM72 °FPartly sunny.7 mph73%29.98 "HgN/A
11:20 AM72 °FPartly sunny.8 mph73%29.98 "HgN/A
10:50 AM72 °FPartly sunny.3 mph69%29.95 "Hg6 mi
10:20 AM72 °FPartly sunny.2 mph69%29.95 "Hg6 mi
9:50 AM72 °FPartly sunny.2 mph65%29.95 "Hg6 mi
9:20 AM72 °FPartly sunny.No wind65%29.95 "HgN/A
8:50 AM68 °FPartly sunny.2 mph73%29.95 "HgN/A
8:20 AM68 °FPartly sunny.No wind73%29.95 "HgN/A
7:50 AM66 °FBroken clouds.2 mph78%29.95 "HgN/A
7:20 AM66 °FBroken clouds.2 mph78%29.95 "HgN/A
6:50 AM64 °FPartly cloudy.2 mph83%29.95 "HgN/A
6:20 AM64 °FPassing clouds.3 mph83%29.95 "HgN/A
5:50 AM64 °FPassing clouds.2 mph78%29.95 "HgN/A
5:20 AM66 °FPassing clouds.5 mph73%29.92 "HgN/A
4:50 AM66 °FPassing clouds.3 mph73%29.92 "HgN/A
4:20 AM68 °FPassing clouds.2 mph73%29.95 "HgN/A
3:50 AM66 °FPassing clouds.2 mph73%29.92 "HgN/A
3:20 AM66 °FPassing clouds.5 mph73%29.95 "HgN/A
2:50 AM64 °FPassing clouds.5 mph78%29.95 "HgN/A
2:20 AM66 °FPassing clouds.6 mph73%29.95 "HgN/A
1:50 AM66 °FPassing clouds.7 mph73%29.95 "HgN/A
1:20 AM64 °FPassing clouds.7 mph78%29.95 "HgN/A
12:50 AM64 °FPassing clouds.7 mph83%29.95 "HgN/A
12:20 AM66 °FPassing clouds.7 mph78%29.98 "HgN/A
11:50 PM
Thu, May 21
68 °FPassing clouds.6 mph73%29.95 "HgN/A
11:20 PM66 °FPassing clouds.5 mph78%29.98 "HgN/A
10:50 PM68 °FPassing clouds.5 mph78%29.98 "HgN/A
10:20 PM72 °FPartly cloudy.6 mph69%29.98 "HgN/A
9:50 PM70 °FPartly cloudy.3 mph73%29.95 "HgN/A
9:20 PM72 °FBroken clouds.9 mph65%29.95 "HgN/A
8:50 PM75 °FBroken clouds.6 mph54%29.95 "HgN/A
8:20 PM73 °FBroken clouds.7 mph57%29.92 "HgN/A
7:50 PM77 °FBroken clouds.3 mph51%29.98 "HgN/A
7:20 PM77 °FBroken clouds.6 mph47%29.95 "HgN/A
6:50 PM77 °FBroken clouds.10 mph47%29.95 "HgN/A
6:20 PM77 °FBroken clouds.14 mph44%29.92 "HgN/A
5:50 PM79 °FBroken clouds.14 mph42%29.92 "HgN/A
5:20 PM81 °FScattered clouds.13 mph39%29.92 "HgN/A
4:50 PM81 °FScattered clouds.12 mph39%29.92 "HgN/A
4:20 PM82 °FScattered clouds.9 mph37%29.92 "HgN/A
3:50 PM82 °FScattered clouds.6 mph35%29.92 "HgN/A
3:20 PM82 °FScattered clouds.12 mph37%29.95 "HgN/A
2:50 PM82 °FBroken clouds.12 mph37%29.95 "HgN/A
2:20 PM81 °FBroken clouds.9 mph39%29.95 "HgN/A
Weather by CustomWeather, © 2015

See weather overviewHow to use our weather pages